DateTimeUTC,F1_A11,F1_S11,BsB_S11,BsG_S11,BsR_S11,BbsB_S11,BbsG_S11,BbsR_S11,BaB_A11,BaG_A11,BaR_A11,Tu_S11,T_S11,Uu_S11,U_S11,P_S11,T1_A11
2021-10-17T06:00:00Z,00040200,21000000,,,,,,,0000.03,0000.06,0000.30,15.8,23.1,,00.0,0666.3,30.8
2021-10-17T06:01:00Z,00040200,21000000,,,,,,,-000.09,-000.34,-000.28,15.8,23.1,,00.0,0666.3,30.8
2021-10-17T06:02:00Z,00040200,21000000,,,,,,,-000.13,0000.11,0000.25,15.8,23.1,,00.0,0666.3,30.8
2021-10-17T06:03:00Z,00040200,61000000,,,,,,,0000.36,0000.47,-000.26,15.8,23.1,,00.0,0666.3,30.8
2021-10-17T06:04:00Z,00040200,41000000,0001.51,0000.69,0000.43,-000.13,0000.20,0000.05,0000.10,0000.04,0000.16,16.0,22.8,,00.0,0667.2,30.8
2021-10-17T06:05:00Z,00040200,01000000,0001.12,0000.72,0000.58,-000.12,0000.09,-000.05,0000.39,0000.33,0000.39,16.1,22.8,,00.0,0667.3,30.8
2021-10-17T06:06:00Z,00040200,01000000,0001.57,0000.97,0001.00,0000.16,0000.13,-000.24,0000.08,0000.44,0000.13,16.1,22.8,,00.0,0667.3,30.8
2021-10-17T06:07:00Z,00040200,01000000,0000.74,0001.40,0000.67,0000.21,0000.05,-000.09,0000.63,0000.39,0000.41,16.1,22.8,,00.0,0667.3,30.8
2021-10-17T06:08:00Z,00040200,01000000,0001.54,0000.88,0000.47,0000.01,0000.26,-000.15,0000.30,0000.46,0000.21,16.1,22.8,,00.0,0667.3,30.8
2021-10-17T06:09:00Z,00040200,01000000,0001.86,0001.61,0000.61,0000.15,0000.17,-000.30,0000.77,0000.40,0000.33,16.1,22.8,,00.0,0667.4,30.8
2021-10-17T06:10:00Z,00040200,01000000,0001.96,0000.77,0000.70,0001.06,0000.20,0000.22,0000.27,0000.21,0000.04,16.1,22.8,,00.0,0667.4,30.8
2021-10-17T06:11:00Z,00040200,01000000,0001.55,0000.84,0000.79,0000.49,0000.01,0000.08,0000.03,0000.35,0000.17,16.1,22.8,,00.0,0667.4,30.8
2021-10-17T06:12:00Z,00040200,01000000,0001.05,0000.96,0000.62,0000.07,-000.18,0000.10,0000.73,0000.33,0000.69,16.1,22.8,,00.0,0667.4,30.8
2021-10-17T06:13:00Z,00040200,01000000,0001.81,0001.01,0000.62,0000.05,0000.19,-000.19,0000.20,0000.17,0000.08,16.1,22.7,,00.0,0667.4,30.8
2021-10-17T06:14:00Z,00040200,01000000,0002.37,0001.15,0000.80,0000.19,0000.06,0000.11,0000.01,-000.01,-000.08,16.1,22.7,,00.0,0667.4,30.8
2021-10-17T06:15:00Z,00040200,01000000,0001.29,0001.01,0000.43,0000.81,0000.07,-000.14,0000.47,0000.42,0000.12,16.1,22.7,,00.0,0667.4,30.8
2021-10-17T06:16:00Z,00040200,01000000,0001.85,0001.20,0000.60,-000.03,0000.12,0000.09,0000.29,0000.04,0000.39,16.1,22.7,,00.0,0667.4,30.8
2021-10-17T06:17:00Z,00040200,01000000,0001.83,0001.30,0000.63,0000.05,-000.00,0000.22,0000.35,0000.62,0000.40,16.1,22.7,,00.0,0667.4,30.8
2021-10-17T06:18:00Z,00040200,01000000,0001.61,0001.01,0000.66,0000.76,0000.16,0000.08,0000.64,0000.46,0000.55,16.1,22.7,,00.0,0667.4,30.8
2021-10-17T06:19:00Z,00040200,01000000,0001.94,0001.52,0001.08,0000.47,-000.03,0000.09,0005.65,0005.16,0003.71,16.1,22.7,,00.0,0667.4,30.8
2021-10-17T06:20:00Z,00040200,01000000,0005.95,0004.48,0003.25,0001.23,0001.09,0000.88,0049.05,0045.45,0037.05,16.1,22.7,,00.0,0667.4,30.8
2021-10-17T06:21:00Z,00040200,01000000,0011.58,0008.84,0005.34,0002.70,0001.59,0001.37,0107.96,0100.56,0081.67,16.1,22.7,,00.0,0667.4,30.8
2021-10-17T06:22:00Z,00040200,01000000,0016.29,0011.91,0007.33,0003.86,0002.72,0001.82,0148.36,0138.24,0111.96,16.1,22.7,,00.0,0667.4,30.8
2021-10-17T06:23:00Z,00040200,01000000,0019.04,0013.97,0008.61,0003.32,0003.14,0002.16,0183.79,0171.52,0138.76,16.1,22.7,,00.0,0667.4,30.8
2021-10-17T06:24:00Z,00040200,01000000,0011.59,0008.97,0005.45,0001.60,0002.18,0001.64,0119.93,0112.36,0091.41,16.1,22.7,,00.0,0667.4,30.8
2021-10-17T06:25:00Z,00040200,01000000,0006.24,0004.47,0002.82,0000.68,0001.14,0000.64,0053.45,0049.64,0040.73,16.1,22.7,,00.0,0667.4,30.8
2021-10-17T06:26:00Z,00040200,01000000,0008.26,0006.09,0003.50,0001.49,0001.58,0001.11,0067.59,0062.87,0050.95,16.1,22.7,,00.0,0667.4,30.8
2021-10-17T06:27:00Z,00040200,01000000,0015.93,0011.00,0006.99,0003.61,0002.43,0001.61,0152.24,0142.07,0115.53,16.1,22.7,,00.0,0667.4,30.8
2021-10-17T06:28:00Z,00040200,01000000,0005.36,0004.16,0002.53,0001.43,0000.62,0000.51,0050.66,0047.61,0038.75,16.1,22.7,,00.0,0667.4,30.8
2021-10-17T06:29:00Z,00040200,01000000,0005.50,0003.45,0002.39,0001.06,0000.99,0000.59,0041.86,0039.06,0032.14,16.1,22.7,,00.0,0667.5,30.8
2021-10-17T06:30:00Z,00040200,01000000,0002.24,0001.53,0000.60,-000.16,-000.21,0000.02,0006.69,0006.07,0005.08,16.1,22.7,,00.0,0667.5,30.8
2021-10-17T06:31:00Z,00040200,01000000,0002.67,0000.77,0000.50,0000.47,-000.01,0000.24,0001.24,0001.63,0000.69,16.1,22.7,,00.0,0667.5,30.8
2021-10-17T06:32:00Z,00040200,01000000,0002.06,0001.27,0000.93,-000.20,0000.09,-000.03,0000.87,0000.75,0000.74,16.1,22.7,,00.0,0667.5,30.8
2021-10-17T06:33:00Z,00040200,01000000,0001.68,0001.24,0000.82,-000.39,0000.15,-000.15,0000.55,0000.28,0000.21,16.1,22.7,,00.0,0667.5,30.8
2021-10-17T06:34:00Z,00040200,01000000,0001.68,0001.13,0000.53,0000.23,0000.38,-000.21,0000.81,0001.07,0000.63,16.1,22.7,,00.0,0667.5,30.8
2021-10-17T06:35:00Z,00040200,01000000,0001.29,0001.11,0000.73,0000.14,0000.23,0000.32,0000.76,0000.46,0000.86,16.1,22.7,,00.0,0667.5,30.8
2021-10-17T06:36:00Z,00040200,01000000,0001.30,0000.98,0000.68,0000.25,0000.05,0000.01,0000.81,0000.56,0000.39,16.1,22.7,,00.0,0667.5,30.8
2021-10-17T06:37:00Z,00040200,01000000,0001.56,0001.01,0000.80,-000.45,-000.07,0000.09,0000.73,0000.79,0000.42,16.1,22.7,,00.0,0667.5,30.8
2021-10-17T06:38:00Z,00040200,01000000,0001.68,0000.94,0000.79,0000.40,-000.07,-000.11,0000.49,0000.54,0000.58,16.1,22.7,,00.0,0667.5,30.8
2021-10-17T06:39:00Z,00040200,01000000,0001.93,0000.72,0000.90,0000.02,0000.12,-000.00,0000.98,0000.38,0000.51,16.1,22.7,,00.0,0667.5,30.8
2021-10-17T06:40:00Z,00040200,01000000,0002.10,0001.49,0000.97,0000.32,0000.14,0000.36,0005.04,0004.94,0003.92,16.1,22.7,,00.0,0667.5,30.8
2021-10-17T06:41:00Z,00140200,01000000,0006.20,0004.14,0002.52,0000.88,0001.14,0000.73,0027.09,0025.62,0020.26,16.1,22.7,,00.0,0667.4,30.8
2021-10-17T06:41:36Z,00140200,01000000,0006.20,0004.14,0002.52,0000.88,0001.14,0000.73,,,,16.1,22.7,,00.0,0667.4,30.8
2021-10-17T06:41:37Z,00140200,01000000,0006.20,0004.14,0002.52,0000.88,0001.14,0000.73,,,,16.1,22.7,,00.0,0667.4,30.8
2021-10-17T06:42:00Z,00000200,01000000,0014.50,0011.09,0007.11,0002.95,0002.53,0001.63,0221.15,0203.56,0159.40,16.1,22.7,,00.0,0667.4,30.8
2021-10-17T06:43:00Z,00000200,01000000,0018.99,0013.61,0008.17,0003.67,0003.11,0002.41,0260.12,0238.55,0187.06,16.1,22.7,,00.0,0667.4,30.8
2021-10-17T06:44:00Z,00000200,01000000,0017.83,0013.50,0008.19,0004.74,0003.60,0001.76,0260.19,0239.13,0188.29,16.1,22.7,,00.0,0667.4,30.8
2021-10-17T06:45:00Z,00000200,01000000,0013.29,0009.35,0005.96,0002.40,0001.87,0001.48,0183.15,0169.24,0133.14,16.1,22.7,,00.0,0667.4,30.8
2021-10-17T06:46:00Z,00000200,01000000,0005.29,0003.51,0002.24,0001.36,0000.77,0000.97,0059.45,0054.43,0043.13,16.1,22.7,,00.0,0667.4,30.8
2021-10-17T06:47:00Z,00000200,01000000,0003.23,0002.73,0001.26,0000.61,0000.45,0000.61,0024.12,0022.30,0017.23,16.1,22.7,,00.0,0667.4,30.8
2021-10-17T06:48:00Z,00000200,01000000,0004.68,0003.03,0002.22,0000.74,0000.70,0000.23,0041.26,0037.71,0029.34,16.1,22.6,,00.0,0667.4,30.8
2021-10-17T06:49:00Z,00000200,01000000,0009.24,0005.69,0003.93,0001.93,0001.27,0000.96,0098.91,0090.84,0071.48,16.1,22.6,,00.0,0667.4,30.8
2021-10-17T06:50:00Z,00000200,01000000,0010.51,0007.16,0004.81,0002.09,0001.79,0001.45,0137.76,0127.01,0099.81,16.1,22.6,,00.0,0667.4,30.8
2021-10-17T06:51:00Z,00000200,01000000,0005.69,0003.32,0001.91,0000.61,0000.91,0000.58,0054.57,0050.43,0040.22,16.1,22.6,,00.0,0667.4,30.8
2021-10-17T06:52:00Z,00000200,01000000,0002.08,0001.45,0000.67,0000.41,0000.47,0000.10,0005.22,0004.81,0003.98,16.1,22.6,,00.0,0667.4,30.8
2021-10-17T06:53:00Z,00000200,01000000,0001.92,0001.20,0000.88,-000.25,0000.25,-000.08,0002.02,0001.59,0001.30,16.1,22.7,,00.0,0667.4,30.8
2021-10-17T06:54:00Z,00000200,01000000,0001.83,0001.17,0000.86,-000.19,0000.07,0000.19,0001.09,0001.50,0000.96,16.1,22.6,,00.0,0667.4,30.8
2021-10-17T06:55:00Z,00000200,01000000,0002.25,0001.00,0000.65,-000.31,0000.15,-000.00,0001.68,0001.15,0001.13,16.1,22.6,,00.0,0667.4,30.8
2021-10-17T06:56:00Z,00000200,01000000,0002.03,0001.18,0000.89,0000.11,0000.18,0000.36,0001.05,0000.83,0000.87,16.1,22.6,,00.0,0667.4,30.8
2021-10-17T06:57:00Z,00000200,41000000,,,,,,,0003.47,0003.42,0002.18,16.1,22.7,,00.0,0667.3,30.8
2021-10-17T06:58:00Z,00000200,61000000,,,,,,,0000.73,0000.75,0000.68,15.8,22.8,,00.0,0666.4,30.8
2021-10-17T06:59:00Z,00000200,21000000,,,,,,,0000.90,0000.43,0000.42,15.7,22.9,,00.0,0666.4,30.8
